This is the latest recevied weather packets stored in our database for station/object KD2RHT-13. If no packets are shown the sender has not sent any weather packets the latest 10 day(s).
| Time | Temp. | Humidity | Pressure | Rain* | Wind** | Luminosity | Snow |
|---|---|---|---|---|---|---|---|
| 1777647123 | 11.11° C | 60% | 1014.9 hPa | 0 mm | - | 791 W/m² | - |
| 1777646210 | 11.11° C | 56% | 1015.2 hPa | 0 mm | - | 775 W/m² | - |
| 1777645908 | 11.11° C | 63% | 1014.9 hPa | 0 mm | - | 776 W/m² | - |
| 1777645604 | 10.56° C | 63% | 1014.9 hPa | 0 mm | - | 757 W/m² | - |
| 1777645300 | 10.56° C | 60% | 1014.9 hPa | 0 mm | - | 721 W/m² | - |
| 1777644996 | 10.56° C | 60% | 1015.2 hPa | 0 mm | - | 731 W/m² | - |
| 1777644694 | 10.56° C | 64% | 1014.9 hPa | 0 mm | - | 712 W/m² | - |
| 1777644390 | 10° C | 63% | 1015.2 hPa | 0 mm | - | 684 W/m² | - |
| 1777644087 | 9.44° C | 62% | 1015.2 hPa | 0 mm | - | 663 W/m² | - |
| 1777643784 | 9.44° C | 65% | 1015.2 hPa | 0 mm | - | 642 W/m² | - |
| 1777643481 | 10° C | 62% | 1014.9 hPa | 0 mm | - | 642 W/m² | - |
| 1777642874 | 10° C | 65% | 1015.2 hPa | 0 mm | - | 629 W/m² | - |
| 1777642571 | 8.89° C | 68% | 1015.6 hPa | 0 mm | - | 602 W/m² | - |
| 1777642268 | 8.89° C | 68% | 1015.2 hPa | 0 mm | - | 576 W/m² | - |
| 1777641965 | 9.44° C | 69% | 1015.2 hPa | 0 mm | - | 543 W/m² | - |
| 1777641660 | 9.44° C | 68% | 1015.2 hPa | 0 mm | - | 501 W/m² | - |
| 1777641051 | 8.33° C | 70% | 1015.2 hPa | 0 mm | - | 442 W/m² | - |
| 1777639838 | 8.33° C | 72% | 1015.2 hPa | 0 mm | - | 353 W/m² | - |
| 1777638017 | 7.22° C | 78% | 1015.2 hPa | 0 mm | - | 263 W/m² | - |
| 1777637714 | 7.78° C | 76% | 1015.6 hPa | 0 mm | - | 252 W/m² | - |
| 1777637405 | 7.22° C | 78% | 1015.2 hPa | 0 mm | - | 226 W/m² | - |
| 1777637102 | 7.22° C | 80% | 1015.2 hPa | 0 mm | - | 210 W/m² | - |
| 1777636797 | 7.22° C | 80% | 1015.6 hPa | 0 mm | - | 193 W/m² | - |
| 1777635582 | 6.67° C | 82% | 1015.2 hPa | 0 mm | - | 166 W/m² | - |
| 1777635278 | 6.11° C | 85% | 1015.2 hPa | 0 mm | - | 110 W/m² | - |
* Rain latest hour (hover to see other rain measurements)
** Current wind speed in m/s (hover to see current wind gust speed)